Voltar ao catálogo

STARLINK-37309

AtivoComunicaçõesVLEO
NORAD 69364·PAYLOAD·🇺🇸 United States

Lançado Jun 4, 2026 de Cape Canaveral Space Force Station

Loading…

Próximas Passagens (próximas 24 horas)

TLE

AtualizadoSource: CelesTrak SupGP

Época: Sep 14, 2026, 23:24 UTC

1 69364C 26123M   26257.97548611 -.00126040  00000+0 -37218-2 0  2579
2 69364  53.1587 167.8592 0001349  85.5187  54.4483 15.34469829    18

Acompanhe STARLINK-37309 em tempo real com AllMySat

Download on the App Store